Location: Browne Barr
(41.2080°N, 111.9480°W)
Time: 01:40:38
(UTC+00:00)

STARLINK-1302 - Pass Details

Date: 08 April 2020
Orbit: 549 x 550 km, 53.0° (Epoch: 27 May)

Event Time Altitude Azimuth Distance (km) Brightness Sun altitude
Exits shadow 10:55:20 - 322° (NW) 1,959 6.4 -22.3°
Reaches altitude 10° 10:55:49 10° 327° (NNW) 1,827 6.3 -22.2°
Drops below altitude 10° 11:01:25 10° 52° (NE) 1,826 7.4 -21.3°
Enters shadow 12:00:08 -69° 282° (WNW) 12,466 10.4 -11.4°
Maximum altitude 12:39:04 41° 30° (NNE) 810 4.9 -4.4°
